Preview of NWS' New Version of Forecast
This preview is not operational and should not be used for support decisions.

Regional Weather Roundup (RWR)

Issued by National Weather Service (NWS)

                            
000
ASUS46 KSEW 190410
RWRWA 

WASHINGTON REGIONAL WEATHER ROUNDUP
NATIONAL WEATHER SERVICE SEATTLE WA
800 PM PST MON FEB 18 2019

NOTE:"FAIR" INDICATES FEW OR NO CLOUDS BELOW 12,000 FEET WITH NO 
SIGNIFICANT WEATHER AND/OR OBSTRUCTIONS TO VISIBILITY.

WAZ507-509-555>559-190500-
SEATTLE, TACOMA, EVERETT, AND VICINITY
  
CITY           SKY/WX    TMP DP  RH WIND       PRES   REMARKS
EVERETT        LGT RAIN  38  34  85 E5        30.33F                  
BOEING FIELD   MOCLDY    41  35  79 CALM      30.35F                  
RENTON         CLOUDY    39  35  86 S3        30.35S                  
SEATAC AIRPORT MOCLDY    41  32  70 SE5       30.33F                  
JBLM-MCCHORD   CLOUDY    39  39 100 S8        30.34F                  
PUYALLUP       CLOUDY    37  36  93 CALM      30.34S                  
BREMERTON      LGT RAIN  37  35  92 CALM      30.33F                  
JBLM-FT LEWIS  NOT AVBL                                               
TACOMA NARROWS CLOUDY    41  35  79 S7        30.33F                  
$$
 
WAZ001-503-506-510-514-515-190500-
NORTH INTERIOR
  
CITY           SKY/WX    TMP DP  RH WIND       PRES   REMARKS
BELLINGHAM     CLOUDY    32  22  66 CALM      30.33F                  
FRIDAY HARBOR  CLOUDY    38  31  76 CALM      30.34F                  
EASTSOUND      CLOUDY    37  32  81 CALM      30.33F                  
PORT ANGELES   CLOUDY    35  33  92 CALM      30.33F                  
EDIZ HOOK      CLOUDY    40  35  81 CALM      30.34F                  
PORT TOWNSEND  CLOUDY    37  37 100 CALM      30.33F                  
NAS WHIDBEY    CLOUDY    41  33  73 E5        30.38F                  
ARLINGTON      MIX PCPN  34  32  92 N3        30.35F                  
BURLINGTON     CLOUDY    36  27  69 CALM      30.35F                  
$$
 
WAZ020-022-039-040-504-511-512-190500-
SOUTHWEST INTERIOR
  
CITY           SKY/WX    TMP DP  RH WIND       PRES   REMARKS
SHELTON        CLEAR     33  29  85 CALM      30.32S                  
OLYMPIA        CLOUDY    39  35  86 S6        30.35F                  
CHEHALIS       CLOUDY    41  39  93 CALM      30.36F                  
KELSO          CLOUDY    39  37  92 SE5       30.39S                  
VANCOUVER      CLOUDY    40  36  86 CALM      30.38S                  
SCAPPOOSE, OR  CLOUDY    40  37  89 CALM      30.38S FOG              
PORTLAND, OR   CLOUDY    41  35  79 CALM      30.39S                  
$$
 
WAZ021-516-517-190500-
WASHINGTON COAST
  
CITY           SKY/WX    TMP DP  RH WIND       PRES   REMARKS
FORKS          CLOUDY    38  35  89 SE3       30.33F                  
HOQUIAM        MOCLDY    42  37  82 NW5       30.35F                  
ASTORIA, OR    LGT RAIN  40  38  93 CALM      30.38R                  
$$
 
WAZ019-023-024-040-567>569-190500-
CASCADE MOUNTAINS AND COLUMBIA GORGE
  
CITY           SKY/WX    TMP DP  RH WIND       PRES   REMARKS
STAMPEDE PASS  FOG       26  23  88 VRB5      30.17S VSB 3/4          
TROUTDALE, OR  CLOUDY    41  35  79 CALM      30.38F                  
HOOD RIVER, OR CLEAR     36  32  87 W12G17    30.31F                  
THE DALLES, OR CLEAR     28  24  85 SE3       30.32F                  
$$

WAZ026-027-041>044-520-521-190500-
EAST SLOPES
  
CITY           SKY/WX    TMP DP  RH WIND       PRES   REMARKS
OMAK           CLOUDY    24  16  71 SE8       30.28F                  
WENATCHEE      PTCLDY    20  12  71 E5        30.28F                  
ELLENSBURG     PTCLDY    20  14  77 CALM      30.24F                  
YAKIMA         PTCLDY    17  13  84 W3        30.30F                  
SUNNYSIDE ARPT CLEAR     21  18  88 NE3       30.32                   
YAKIMA TC      FAIR      21  17  85 CALM      30.26S                  
$$

WAZ028-034-035-190500-
COLUMBIA BASIN
  
CITY           SKY/WX    TMP DP  RH WIND       PRES   REMARKS
EPHRATA        CLOUDY    17  10  74 N6        30.29S                  
MOSES LAKE     MOCLDY   N/A N/A N/A N3        30.30F                  
PASCO          PTCLDY    22  19  89 CALM      30.34F                  
RICHLAND ARPT  CLEAR     25  20  79 CALM      30.34F                  
HERMISTON, OR  MOCLDY    31  26  82 CALM      30.29F                  
$$

WAZ036>038-190500-
NORTHEAST WASHINGTON
  
CITY           SKY/WX    TMP DP  RH WIND       PRES   REMARKS
SPOKANE GEIGER CLOUDY    15   7  70 S6        30.22F                  
SPOKANE FELTS  CLOUDY    17  11  77 CALM      30.26F                  
FAIRCHILD AFB  CLOUDY    14   8  78 SW3       30.20F                  
COEURDALENE,ID CLEAR      6   1  80 CALM      30.23F                  
DEER PARK      CLOUDY    13   8  81 CALM      30.23F                  
$$

WAZ029>033-190500-
SOUTHEAST WASHINGTON
  
CITY           SKY/WX    TMP DP  RH WIND       PRES   REMARKS
PULLMAN        CLOUDY    20  15  81 S3        30.23F                  
LEWISTON, ID   CLOUDY    26  18  71 NE3       30.29F                  
WALLA WALLA    CLOUDY    33  23  66 S6        30.27F                  
PENDLETON, OR  CLOUDY    30  24  78 SE6       30.25F                  
$$